www.pogodaiklimat.ru

АРХИВ ПОГОДЫ в Эшвилле

Время (UTC), дата Ветер
(напр.,м/с)
 
Видим.   Явления Облачность Т
(С)
Тd
(С)
f
(%)
Тe
(С)
Тes
(С)
Комфортность

P
(гПа)

Po
(гПа)
Тmin
(С)
Tmax
(С)
R
(мм)
SD
(см)
21:54 22.03 СЗ  7
{14} 
16 км    ясно  +13.9  -4.4  28  +12  +12    1011.3  935.0         
22:54 22.03 СЗ  6
{12} 
16 км    ясно  +12.8  -5.0  29  +11  +11    1012.6  935.9  +12.8  +16.1     
23:54 22.03 СЗ  8
{11} 
16 км    ясно  +12.2  -5.0  30  +9  +9    1013.4  936.9         
00:54 23.03 СЗ  16 км    ясно  +11.1  -4.4  33  +8  +8    1014.5  937.8         
01:54 23.03 С  6
{10} 
16 км    ясно  +10.0  -3.3  39  +7  +7    1015.6  938.7         
02:54 23.03 С  9
{12} 
16 км    ясно  +8.9  -2.2  46  +4  +4    1016.3  939.7         
03:54 23.03 С  8
{13} 
16 км    ясно  +7.2  -2.2  51  +3  +3    1016.7  940.0         
04:54 23.03 С  6
{11} 
16 км    ясно  +6.7  -2.8  51  +2  +2    1017.0  940.3  +6.7  +12.8     
05:54 23.03 С  7
{9} 
16 км    ясно  +5.6  -3.9  50  +1  +1    1017.6  940.9         
06:54 23.03 С  6
{11} 
16 км    ясно  +5.0  -5.0  48  0  0    1017.5  940.9         
07:54 23.03 С  16 км    ясно  +4.4  -6.7  44  -0  -0    1018.8  942.2         
08:54 23.03 С  16 км    ясно  +3.9  -7.2  44  -0  -0    1019.9  942.8         
09:54 23.03 С  16 км    ясно  +2.8  -6.7  50  -2  -2    1020.8  943.8         
10:54 23.03 С  16 км    ясно  +2.2  -6.7  52  -1  -1    1022.4  945.0  +2.2  +6.7     
11:54 23.03 С  16 км    ясно  +4.4  -6.7  44  +1  +1    1023.5  945.9         
12:54 23.03 С  16 км    ясно  +6.7  -7.8  35  +3  +5    1024.1  946.6         
13:54 23.03 С  16 км    ясно  +8.9  -11.1  23  +5  +7    1024.8  947.5         
14:54 23.03 С  4
{10} 
16 км    ясно  +10.6  -9.4  24  +8  +13    1024.8  947.5         
15:54 23.03 С  16 км    ясно  +11.7  -13.9  15  +9  +13    1024.9  947.5         
16:54 23.03 С  7
{10} 
16 км    ясно  +13.3  -16.1  11  +11  +14    1024.2  946.9  +2.8  +13.3     
17:54 23.03 С  16 км    ясно  +15.0  -15.0  11  +14  +18    1023.5  946.3         
18:54 23.03 С  6
{9} 
16 км    ясно  +16.1  -12.8  13  +15  +19    1022.9  945.9         
19:54 23.03 СВ  16 км    ясно  +16.7  -12.2  13  +16  +24    1022.9  945.9         
20:54 23.03 С  16 км    ясно  +16.7  -13.3  12  +16  +18    1022.5  945.6         
21:54 23.03 С  16 км    ясно  +15.6  -12.8  13  +15  +16    1023.2  945.9         
22:54 23.03 С  16 км    ясно  +12.2  -9.4  21  +11  +11    1024.1  946.6  +12.2  +16.7     
23:54 23.03 С  16 км    ясно  +9.4  -7.8  29  +7  +7    1024.8  947.2         
00:54 24.03 СЗ  16 км    ясно  +7.8  -6.7  35  +7  +7    1025.4  947.5         
01:54 24.03   16 км    ясно  +3.9  -2.8  62  +3  +3    1026.0  948.1         
02:54 24.03   16 км    ясно  +5.0  -5.0  48  +5  +5    1025.6  947.8         
03:54 24.03 Ю  16 км    ясно  +3.3  -1.7  70  +1  +1    1025.7  948.1         
04:54 24.03   16 км    ясно  +3.3  -3.3  62  +3  +3    1025.7  948.1  +2.8  +12.8     
05:54 24.03   16 км    ясно  +2.8  -3.3  64  +2  +2    1025.1  947.5         
06:54 24.03   16 км    ясно  +2.2  -2.8  69  +1  +1    1024.8  947.5         
07:54 24.03   16 км    ясно  +1.1  -2.8  75  0  0    1024.9  947.5         
08:54 24.03   16 км    ясно  +0.6  -2.8  78  -0  -0    1025.1  947.5         
09:54 24.03   16 км    ясно  +0.6  -3.3  75  -0  -0    1025.3  947.8         
10:54 24.03   16 км    ясно  0.0  -2.8  81  -1  -1    1026.2  948.1  0.0  +3.3     
11:54 24.03 ЮВ  16 км    ясно  +2.8  -1.7  72  +1  +1    1026.7  948.8         
12:54 24.03   16 км    ясно  +7.2  -1.1  56  +7  +10    1026.3  948.5         
13:54 24.03 ЮВ  16 км    ясно  +12.2  0.0  43  +11  +16    1026.0  948.5         
14:54 24.03 Ю  6
{9} 
16 км    ясно  +17.2  -1.1  29  +16  +19    1024.6  947.5         
15:54 24.03 Ю  16 км    ясно  +18.9  -1.1  26  +18  +22    1023.8  946.9         
16:54 24.03 Ю  16 км    ясно  +18.9  -1.1  26  +18  +23    1022.9  945.9  0.0  +20.0     
17:54 24.03 Ю  9
{11} 
16 км    ясно  +20.6  -1.1  23  +20  +20    1021.4  944.7         
18:54 24.03 ЮЗ  5
{8} 
16 км    ясно  +20.0  +0.6  27  +20  +25    1020.7  944.1         
19:54 24.03 Ю  6
{10} 
16 км    ясно  +18.9  +1.1  30  +18  +22    1020.5  943.8         
20:54 24.03 Ю  7
{9} 
16 км    ясно  +18.3  +0.6  30  +18  +19    1020.2  943.1         

 

Местоположение метеостанции Asheville Regional Airport: широта 35.4319 долгота -82.5375 высота над уровнем моря 660 м.

В архиве по умолчанию представлена погода в Эшвилле за последние 1-2 суток. Обновление информации о фактической погоде в базе происходит ежечасно! Архивные данные за месяц целиком и за предыдущие месяцы Вы можете получить, выбрав интересующий диапазон дат из раскрывающегося списка и нажав кнопку "Ввод!".

Внимание! Архив погоды МЕТАР в базе сайта в настоящее время начинается c 1 января 2011 г. Нет смысла пытаться выбрать более раннюю дату.

Внимание! Время в таблицах - всемирное. Для получения местного времени необходимо прибавить поправку, которая в Эшвилле равна -5 ч.

Ветер - указаны скорость ветра в м/с и направление, откуда дует ветер: С - северный, СВ - северо-восточный, В - восточный, ЮВ - юго-восточный, Ю - южный, ЮЗ - юго-западный, З - западный, СЗ - северо-западный.
Видимость - горизонтальная дальность видимости в метрах или километрах. При видимости от 1 до 10 км при отсутствии осадков обычно наблюдается дымка, при ухудшении видимости до 1 км и менее - туман. В сухую погоду видимость может ухудшаться дымом, пылью или мглою.
Атмосферные явления - указаны явления, наблюдавшиеся в указанный момент времени.
Облачность - указаны через наклонную черту верхняя и нижняя облачность в баллах и высота нижней границы облаков в метрах. Внимание: облачность, как и прочие метеорологические величины в США измеряются автоматическими метеостанциями. Указанные значения в баллах носят условный характер и показывают процент времени, в течение которого, в среднем, лазерный луч высотомера отражался от облаков обратно.
T - Температура воздуха - температура, измеренная на высоте 2 м над землей.
Td - Температура точки росы - температура, при понижении до которой содержащийся в воздухе водяной пар достигнет насыщения.
f - Относительная влажность воздуха - влажноcть воздуха, измеренная на высоте 2 м над землей.
Te - Эффективная температура - температура, которую ощущает одетый по сезону человек в тени. Характеристика душности погоды. При расчете учитывается влияние влажности воздуха и скорости ветра на теплоощущения человека.
Tes - Эффективная температура на солнце - температура, которую ощущает человек, с поправкой на солнечный нагрев. Характеристика знойности погоды. Зависит от высоты солнца над горизонтом, облачности и скорости ветра. Ночью, в пасмурную погоду, а также при ветре 12 м/с и более поправка равна нулю.
P - Атмосферное давление - приведенное к уровню моря атмосферное давление.
Po - Атмосферное давление - измеренное на уровне метеостанции атмосферное давление.
Tmin - Минимальная температура - минимум температуры воздуха на высоте 2 м над землей.
Tmax - Максимальная температура - максимум температуры воздуха на высоте 2 м над землей.
R - Количество осадков - Количество выпавших осадков за 3 или 6 часов, мм.
SD - Снежный покров - Высота снежного покрова, см.